Weather History for Renton, WA

Change the Weather History Date:

Wednesday, February 13, 2013

  Actual Average Record
Temperature  
Mean Temperature 46 °F -  
Max Temperature 48 °F 48 °F 55 °F (2014)
Min Temperature 44 °F 35 °F 30 °F (2000)
Degree Days  
Heating Degree Days 19    
Moisture  
Dew Point 42 °F    
Average Humidity 83    
Maximum Humidity 100    
Minimum Humidity 71    
Precipitation  
Precipitation 0.03 in - - ()
Sea Level Pressure  
Sea Level Pressure 30.44 in    
Wind  
Wind Speed 4 mph (South)    
Max Wind Speed 8 mph    
Max Gust Speed 17 mph    
Visibility 9 miles    
Events Rain    
Averages and records for this station are not official NWS values.
T = Trace of Precipitation, MM = Missing Value Source: NWS Daily Summary

Daily Weather History Graph

Daily Weather History Graph

Search for Another Location

Airport:

Trip Planner

Search our weather history database for the weather conditions in past years. The results will help you decide how hot, cold, wet, or windy it might be!

Date:

Astronomy

Feb. 13, 2013 Rise Set
Actual Time 7:16 AM PST 5:29 PM PST
Civil Twilight 6:45 AM PST 6:01 PM PST
Nautical Twilight 6:09 AM PST 6:37 PM PST
Astronomical Twilight 5:33 AM PST 7:13 PM PST
Moon 8:29 AM PST (2/13) 10:00 PM PST (2/13)
Length of Visible Light 11h 16m
Length of Day
10h 12m
Waxing Crescent, 14% of the Moon is Illuminated
Feb 13
Waxing Crescent
Feb 17
First Quarter
Feb 25
Full
Mar 4
Last Quarter
Mar 11
New

Hourly Weather History & Observations

Time (PST) Temp. Windchill Dew Point Humidity Pressure Visibility Wind Dir Wind Speed Gust Speed Precip Events Conditions
12:53 AM 48.9 °F - 44.1 °F 83% 30.35 in 10.0 mi Variable 5.8 mph - N/A   Overcast
1:53 AM 48.9 °F - 44.1 °F 83% 30.36 in 9.0 mi South 8.1 mph 17.3 mph N/A   Overcast
2:53 AM 46.9 °F - 46.0 °F 97% 30.36 in 4.0 mi Calm Calm - 0.02 in Rain Light Rain
3:28 AM 48.2 °F - 44.6 °F 87% 30.35 in 10.0 mi Variable 3.5 mph - 0.00 in   Overcast
3:49 AM 46.4 °F 44.3 °F 44.6 °F 93% 30.36 in 10.0 mi SSE 4.6 mph - 0.00 in   Overcast
3:53 AM 46.9 °F - 44.1 °F 90% 30.37 in 10.0 mi South 4.6 mph - 0.00 in   Overcast
4:50 AM 46.4 °F 45.2 °F 41.0 °F 81% 30.37 in 10.0 mi SSE 3.5 mph - N/A   Partly Cloudy
4:53 AM 46.0 °F 43.9 °F 41.0 °F 83% 30.39 in 10.0 mi South 4.6 mph - N/A   Partly Cloudy
5:53 AM 45.0 °F 43.5 °F 39.9 °F 82% 30.39 in 10.0 mi South 3.5 mph - N/A   Clear
6:37 AM 44.6 °F 43.1 °F 39.2 °F 81% 30.38 in 10.0 mi South 3.5 mph - N/A   Mostly Cloudy
6:53 AM 45.0 °F 42.6 °F 39.0 °F 80% 30.40 in 10.0 mi SSE 4.6 mph - N/A   Overcast
7:53 AM 46.0 °F 44.8 °F 39.0 °F 76% 30.42 in 10.0 mi South 3.5 mph - N/A   Overcast
8:53 AM 46.0 °F 43.1 °F 39.0 °F 76% 30.44 in 10.0 mi SSE 5.8 mph - N/A   Overcast
9:53 AM 46.0 °F 41.9 °F 39.0 °F 76% 30.45 in 10.0 mi South 8.1 mph - N/A   Overcast
10:53 AM 46.9 °F - 39.0 °F 74% 30.46 in 10.0 mi South 6.9 mph - N/A   Overcast
11:53 AM 46.9 °F - 39.0 °F 74% 30.46 in 10.0 mi South 8.1 mph - N/A   Overcast
12:53 PM 48.0 °F - 39.0 °F 71% 30.45 in 10.0 mi SSW 8.1 mph - N/A   Overcast
1:53 PM 48.0 °F - 39.0 °F 71% 30.45 in 10.0 mi South 6.9 mph - N/A   Overcast
2:53 PM 48.0 °F - 39.9 °F 74% 30.45 in 10.0 mi South 5.8 mph - N/A   Overcast
3:53 PM 48.9 °F - 39.9 °F 71% 30.45 in 10.0 mi South 3.5 mph - N/A   Overcast
4:53 PM 48.0 °F - 39.9 °F 74% 30.46 in 10.0 mi Calm Calm - N/A   Overcast
5:53 PM 48.0 °F - 41.0 °F 77% 30.47 in 10.0 mi Calm Calm - N/A   Overcast
6:53 PM 46.9 °F - 41.0 °F 80% 30.47 in 10.0 mi South 4.6 mph - N/A   Overcast
7:15 PM 46.4 °F - 41.0 °F 81% 30.46 in 10.0 mi Calm Calm - N/A   Overcast
7:53 PM 46.9 °F - 42.1 °F 83% 30.48 in 10.0 mi Calm Calm - N/A   Overcast
8:05 PM 46.4 °F 45.2 °F 42.8 °F 87% 30.47 in 10.0 mi SSE 3.5 mph - N/A   Overcast
8:26 PM 46.4 °F - 42.8 °F 87% 30.47 in 10.0 mi Calm Calm - N/A   Overcast
8:53 PM 46.0 °F 44.8 °F 43.0 °F 89% 30.49 in 10.0 mi South 3.5 mph - N/A   Overcast
9:53 PM 45.0 °F - 44.1 °F 97% 30.50 in 3.0 mi Calm Calm - 0.01 in Rain Light Rain
10:47 PM 44.6 °F 43.1 °F 44.6 °F 100% 30.49 in 7.0 mi SSE 3.5 mph - 0.00 in   Overcast
10:48 PM 45.0 °F 43.5 °F 44.1 °F 97% 30.51 in 7.0 mi SSE 3.5 mph - 0.00 in   Overcast
11:03 PM 44.6 °F - 44.6 °F 100% 30.50 in 9.0 mi Calm Calm - N/A   Overcast
11:53 PM 46.0 °F - 43.0 °F 89% 30.53 in 10.0 mi Calm Calm - N/A   Overcast